KG5VSR Weather Reports


Display with metric or nautical units.
time (UTC)temp
F
wind
direction
speed
MPH
gust
MPH
rain 1hr
in
rain 24hr
in
rain mn
in
humidity
%
barometer
mb
20260510170106 74 58 4.0 6.0 0.00 0.00 0.00 75 1017.2
20260510163101 82 153 3.0 3.0 0.00 0.00 0.00 67 1015.3
20260510160100 80 147 4.0 6.0 0.00 0.00 0.00 67 1014.0
20260510153100 78 63 2.0 3.0 0.00 0.00 0.00 69 1014.1
20260510150055 75 180 7.0 10.0 0.00 0.00 0.00 70 1014.1
20260510143050 73 151 3.0 3.0 0.00 0.00 0.00 76 1014.8
20260510140050 69 166 1.0 5.0 0.00 0.00 0.00 82 1015.6
20260510133046 68 159 2.0 3.0 0.00 0.00 0.00 85 1015.6
20260510130046 67 177 1.0 2.0 0.00 0.00 0.00 88 1015.0
20260510123041 67 60 1.0 2.0 0.00 0.00 0.00 89 1014.9
20260510120038 66 90 1.0 1.0 0.00 0.00 0.00 91 1014.6
20260510113035 66 53 2.0 2.0 0.00 0.00 0.00 90 1014.1
20260510110031 67 69 0.0 0.0 0.00 0.00 0.00 88 1014.2
20260510103032 67 52 3.0 6.0 0.00 0.00 0.00 88 1014.0
20260510100031 70 78 4.0 8.0 0.00 0.00 0.00 83 1013.6
20260510093027 72 345 5.0 6.0 0.00 0.00 0.00 85 1014.5
20260510090026 75 42 1.0 2.0 0.00 0.00 0.00 92 1013.0
20260510083027 74 15 1.0 2.0 0.00 0.00 0.00 90 1012.3
20260510080023 74 112 0.0 0.0 0.00 0.00 0.00 89 1011.5
20260510073021 75 76 0.0 0.0 0.00 0.00 0.00 86 1011.0
20260510070019 76 65 0.0 0.0 0.00 0.00 0.00 83 1011.6
20260510063016 76 345 0.0 0.0 0.00 0.00 0.00 83 1012.3
20260510060011 76 49 1.0 1.0 0.00 0.00 0.00 82 1010.1
20260510053006 76 55 0.0 0.0 0.00 0.00 0.00 82 1009.9
20260510050002 77 71 0.0 1.0 0.00 0.00 0.00 79 1009.7
20260510043001 77 185 2.0 3.0 0.00 0.00 0.00 73 1009.3
20260510035957 77 52 0.0 0.0 0.00 0.00 0.00 74 1010.0
20260510032953 78 56 0.0 0.0 0.00 0.00 0.00 73 1009.8
20260510025953 79 39 1.0 1.0 0.00 0.00 0.00 71 1009.8
20260510022951 80 63 1.0 1.0 0.00 0.00 0.00 69 1009.6
20260510015946 81 54 5.0 6.0 0.00 0.00 0.00 66 1009.2
20260510012946 82 67 1.0 2.0 0.00 0.00 0.00 61 1009.1
20260510005945 84 49 1.0 2.0 0.00 0.00 0.00 57 1008.6
20260510002942 85 52 1.0 1.0 0.00 0.00 0.00 55 1008.6
20260509235940 86 55 2.0 3.0 0.00 0.00 0.00 53 1008.6
20260509232939 87 24 1.0 1.0 0.00 0.00 0.00 53 1008.7
20260509225937 88 54 1.0 2.0 0.00 0.00 0.00 54 1008.4
20260509222934 88 77 2.0 2.0 0.00 0.00 0.00 55 1008.4
20260509215933 88 353 0.0 0.0 0.00 0.00 0.00 57 1008.4
20260509212931 87 88 1.0 1.0 0.00 0.00 0.00 58 1008.8
20260509205926 87 13 0.0 1.0 0.00 0.00 0.00 62 1008.9
20260509202921 88 16 1.0 1.0 0.00 0.00 0.00 63 1009.5
20260509195919 88 234 1.0 1.0 0.00 0.00 0.00 58 1009.6
20260509192915 87 337 1.0 2.0 0.00 0.00 0.00 61 1009.7
20260509185911 89 12 4.0 5.0 0.00 0.00 0.00 61 1010.1
20260509182908 86 324 2.0 3.0 0.00 0.00 0.00 65 1010.3
20260509175907 85 272 1.0 2.0 0.00 0.00 0.00 66 1010.6
20260509172906 85 33 2.0 2.0 0.00 0.00 0.00 68 1010.7